{"data":{"norad_id":66077,"epoch":"2026-09-20T03:47:55.534560Z","epoch_age_seconds":132525,"freshness":"FRESH","line1":"1 66077U 25235V   26263.15828165  .00018960  00000+0  57078-3 0  9991","line2":"2 66077  53.1606  59.2751 0000275  41.1948 318.9076 15.34404663 52736","mean_motion":15.34404663,"eccentricity":2.75e-5,"inclination_deg":53.1606,"raan_deg":59.2751,"arg_perigee_deg":41.1948,"mean_anomaly_deg":318.9076,"bstar":0.00057078,"rev_number":5273,"period_min":93.847472881409,"perigee_km":462.50125809805,"apogee_km":462.877503549,"semimajor_km":6840.8263808235,"source":"CELESTRAK","updated_at":"2026-09-21T09:00:35.798039Z"}}